TimeCDT,TemperatureF,Dew PointF,Humidity,Sea Level PressureIn,VisibilityMPH,Wind Direction,Wind SpeedMPH,Gust SpeedMPH,PrecipitationIn,Events,Conditions,WindDirDegrees,DateUTC
12:00 AM,68.0,64.4,88,30.13,7.0,NE,9.2,-,N/A,,Overcast,50,2013-09-16 05:00:00
12:22 AM,66.2,64.4,94,30.14,4.0,NE,10.4,-,0.01,Rain,Rain,40,2013-09-16 05:22:00
12:31 AM,66.2,64.4,94,30.15,4.0,NNE,9.2,-,0.01,Rain-Thunderstorm,Light Thunderstorms and Rain,30,2013-09-16 05:31:00
12:46 AM,66.2,64.4,94,30.15,3.0,NNE,8.1,-,0.02,Rain,Rain,30,2013-09-16 05:46:00
12:53 AM,66.0,64.0,93,30.14,3.0,NNE,9.2,-,0.02,Rain,Light Rain,20,2013-09-16 05:53:00
1:01 AM,66.2,64.4,94,30.16,3.0,NE,9.2,-,0.00,Rain,Light Rain,40,2013-09-16 06:01:00
1:20 AM,66.2,64.4,94,30.17,4.0,ENE,3.5,-,0.00,Thunderstorm,Overcast,70,2013-09-16 06:20:00
1:40 AM,64.4,64.4,100,30.16,4.0,NNE,11.5,-,0.02,Rain,Rain,30,2013-09-16 06:40:00
1:53 AM,64.9,64.0,97,30.15,5.0,NNE,10.4,-,0.03,Rain,Light Rain,30,2013-09-16 06:53:00
2:26 AM,62.6,60.8,94,30.17,6.0,ENE,10.4,-,0.06,Rain,Light Rain,60,2013-09-16 07:26:00
2:36 AM,62.6,60.8,94,30.17,5.0,NE,9.2,-,0.07,Rain,Light Rain,50,2013-09-16 07:36:00
2:43 AM,62.6,60.8,94,30.18,7.0,NE,8.1,-,0.07,Rain,Light Rain,50,2013-09-16 07:43:00
2:53 AM,63.0,60.1,90,30.17,7.0,NE,11.5,-,0.07,Rain,Light Rain,40,2013-09-16 07:53:00
3:20 AM,60.8,60.8,100,30.17,5.0,ENE,11.5,-,0.04,Rain,Rain,70,2013-09-16 08:20:00
3:53 AM,61.0,59.0,93,30.16,8.0,ENE,10.4,-,0.06,Rain,Light Rain,70,2013-09-16 08:53:00
4:53 AM,61.0,59.0,93,30.17,9.0,ENE,6.9,-,0.00,,Overcast,60,2013-09-16 09:53:00
5:04 AM,60.8,59.0,94,30.19,8.0,ENE,6.9,-,N/A,,Overcast,60,2013-09-16 10:04:00
5:23 AM,60.8,59.0,94,30.19,6.0,NE,8.1,-,0.00,Rain,Light Rain,50,2013-09-16 10:23:00
5:34 AM,60.8,59.0,94,30.19,2.5,NE,8.1,-,0.05,Rain,Heavy Rain,50,2013-09-16 10:34:00
5:46 AM,60.8,60.8,100,30.20,5.0,NE,6.9,-,0.06,Rain,Light Rain,40,2013-09-16 10:46:00
5:53 AM,61.0,59.0,93,30.18,6.0,NE,8.1,-,0.06,,Overcast,50,2013-09-16 10:53:00
6:18 AM,60.8,59.0,94,30.20,6.0,NE,8.1,-,N/A,,Overcast,40,2013-09-16 11:18:00
6:51 AM,60.8,59.0,94,30.20,7.0,NE,10.4,-,N/A,,Overcast,50,2013-09-16 11:51:00
6:53 AM,61.0,59.0,93,30.19,7.0,NE,8.1,-,N/A,,Overcast,50,2013-09-16 11:53:00
7:23 AM,60.8,59.0,94,30.22,4.0,NE,10.4,-,N/A,,Overcast,40,2013-09-16 12:23:00
7:53 AM,60.1,57.9,93,30.22,10.0,ENE,11.5,-,N/A,,Overcast,60,2013-09-16 12:53:00
8:53 AM,59.0,57.0,93,30.25,10.0,ENE,6.9,-,N/A,,Overcast,70,2013-09-16 13:53:00
9:53 AM,60.1,57.0,90,30.27,8.0,ENE,10.4,-,N/A,,Overcast,60,2013-09-16 14:53:00
10:53 AM,60.1,57.0,90,30.28,10.0,ENE,9.2,-,N/A,,Overcast,70,2013-09-16 15:53:00
11:53 AM,60.1,57.0,90,30.28,9.0,ENE,6.9,-,N/A,,Overcast,60,2013-09-16 16:53:00
12:53 PM,61.0,57.9,90,30.27,6.0,NE,10.4,-,N/A,,Overcast,50,2013-09-16 17:53:00
1:53 PM,62.1,57.9,86,30.26,10.0,ENE,9.2,-,N/A,,Overcast,70,2013-09-16 18:53:00
2:53 PM,62.1,57.9,86,30.24,5.0,ENE,9.2,-,N/A,,Overcast,60,2013-09-16 19:53:00
3:32 PM,62.6,59.0,88,30.24,6.0,East,8.1,-,N/A,,Overcast,80,2013-09-16 20:32:00
3:53 PM,63.0,59.0,87,30.23,10.0,East,10.4,-,N/A,,Overcast,80,2013-09-16 20:53:00
4:53 PM,64.0,59.0,84,30.22,10.0,East,9.2,-,N/A,,Overcast,80,2013-09-16 21:53:00
5:03 PM,64.4,59.0,83,30.22,10.0,East,6.9,-,N/A,,Overcast,80,2013-09-16 22:03:00
5:53 PM,64.0,59.0,84,30.20,10.0,East,6.9,-,N/A,,Overcast,90,2013-09-16 22:53:00
6:00 PM,64.4,59.0,83,30.20,10.0,East,8.1,-,N/A,,Overcast,100,2013-09-16 23:00:00
6:21 PM,64.4,59.0,83,30.20,10.0,East,6.9,-,N/A,,Overcast,90,2013-09-16 23:21:00
6:43 PM,64.4,59.0,83,30.20,10.0,East,3.5,-,N/A,,Overcast,90,2013-09-16 23:43:00
6:53 PM,64.0,59.0,84,30.19,10.0,ESE,5.8,-,N/A,,Overcast,110,2013-09-16 23:53:00
7:31 PM,64.4,59.0,83,30.21,10.0,SE,3.5,-,N/A,,Overcast,140,2013-09-17 00:31:00
7:53 PM,64.0,59.0,84,30.20,10.0,ESE,3.5,-,N/A,,Overcast,110,2013-09-17 00:53:00
8:53 PM,64.0,59.0,84,30.21,10.0,ESE,3.5,-,N/A,,Overcast,110,2013-09-17 01:53:00
9:53 PM,64.0,60.1,87,30.22,10.0,East,3.5,-,N/A,,Overcast,100,2013-09-17 02:53:00
10:53 PM,64.0,60.1,87,30.22,10.0,East,3.5,-,N/A,,Overcast,90,2013-09-17 03:53:00
11:53 PM,64.0,60.1,87,30.22,9.0,East,3.5,-,N/A,,Overcast,80,2013-09-17 04:53:00